Location: Raitis
(47.2167°N, 11.3833°E)
Time: 11:03:20
(UTC+00:00)

ERS-2 - Pass Details

Date: 03 March 2021
Orbit: 492 x 496 km, 98.6° (Epoch: 23 April)

Event Time Altitude Azimuth Distance (km) Brightness Sun altitude
Rises 18:21:51 0° 12° (NNE) 2,596 5.7 -14.2°
Reaches altitude 10° 18:23:56 10° 10° (N) 1,708 4.8 -14.6°
Maximum altitude 18:27:35 68° 287° (WNW) 540 2.4 -15.2°
Drops below altitude 10° 18:31:12 10° 204° (SSW) 1,695 5.0 -15.8°
Sets 18:33:16 0° 202° (SSW) 2,574 5.9 -16.1°
